Wind_Speed
21 22 22 23 23 24 23 22 22 21 22 23 23 22 22 22 22 22 22 21 21 21 21 21 21 20 20 19 19 18 17 17 16 16 15 15 14 14 14 13 13 12 11 10 10 10 9 9 8
22 23 24 25 26 26 25 24 23 23 23 24 24 24 23 23 24 23 23 23 23 23 23 23 22 22 22 21 21 21 20 19 18 18 17 17 16 16 15 15 15 14 13 13 12 12 11 10 10
24 24 25 26 27 27 26 26 25 25 26 25 26 25 25 25 24 24 24 23 24 24 24 24 24 24 23 23 23 23 22 21 21 20 19 19 18 18 18 17 17 16 15 14 14 14 13 12 12
25 26 27 28 29 28 28 28 28 28 28 28 28 28 27 27 27 26 26 26 26 26 26 26 26 26 25 24 24 24 24 23 23 22 22 21 20 20 20 20 19 19 17 17 16 16 15 14 14
26 27 28 29 28 28 29 29 29 29 29 29 30 30 30 29 29 29 29 29 28 28 28 28 28 28 28 27 26 26 26 25 25 24 23 23 22 22 21 21 21 20 20 19 18 17 17 16 16
26 27 28 28 28 29 29 30 30 30 31 32 32 31 32 32 32 32 32 32 31 31 30 30 30 30 30 30 29 29 28 28 27 27 26 25 24 23 23 23 22 22 21 21 19 19 19 18 18
26 27 27 27 28 28 29 30 31 31 32 33 33 33 33 34 34 34 33 33 33 33 33 32 32 32 33 32 32 32 30 29 29 28 28 27 26 25 24 24 24 24 23 22 21 21 21 20 19
28 28 27 27 28 28 29 30 30 31 32 34 35 35 35 35 34 34 35 35 34 35 35 34 34 34 35 35 34 34 33 31 31 30 30 29 29 27 26 26 26 25 25 24 24 23 23 22 22
28 29 28 29 29 29 30 30 31 32 32 33 34 35 36 36 36 36 36 36 36 36 36 36 36 36 36 36 36 36 35 34 33 32 31 31 31 30 29 28 27 26 26 26 25 25 24 24 24
30 30 30 30 31 31 31 31 32 32 33 33 34 35 36 37 37 37 37 37 36 36 37 38 37 38 38 38 38 38 37 36 35 34 33 33 32 32 31 30 29 27 27 27 27 27 27 27 27
31 32 32 32 32 33 33 33 33 34 34 34 35 35 36 37 37 37 38 38 38 38 38 39 38 39 39 39 40 39 39 38 37 36 35 34 33 33 32 32 31 30 29 29 29 29 29 29 28
32 33 33 34 34 34 35 35 35 35 35 36 36 36 36 37 37 38 38 38 39 39 39 39 40 40 40 40 40 40 40 39 39 38 37 36 34 34 34 34 34 34 33 31 31 31 30 30 30
32 33 34 34 35 35 36 36 36 35 36 36 36 37 38 38 38 38 39 39 39 40 40 40 40 40 41 41 41 41 40 40 40 40 39 39 37 36 36 36 36 36 35 34 32 32 32 32 32
32 32 33 34 35 36 36 37 37 36 36 36 37 38 38 39 39 39 39 40 40 39 40 40 40 40 41 41 41 41 41 41 41 40 40 40 39 38 38 38 38 38 38 37 36 34 34 34 33
31 33 33 34 35 36 37 37 37 37 37 37 38 38 39 39 39 40 39 40 40 40 40 40 40 40 40 41 41 42 42 42 42 42 42 41 40 40 39 39 40 40 39 39 38 37 36 36 35
32 33 34 35 35 36 37 37 37 37 38 38 38 38 38 39 39 40 40 40 40 41 41 41 41 40 40 41 42 43 43 43 43 42 42 42 41 41 40 39 40 40 41 40 40 40 39 37 37
32 33 34 35 36 37 38 37 38 38 38 38 38 38 38 39 39 40 40 40 41 42 42 42 42 42 41 41 42 43 44 44 44 43 43 43 42 42 41 41 40 40 40 40 41 40 40 39 39
33 34 34 36 36 38 38 38 39 39 39 38 38 39 39 39 40 40 40 40 41 42 43 43 43 43 43 42 43 44 45 45 46 45 45 45 44 43 43 43 42 42 41 40 40 41 40 40 40
33 34 35 35 37 38 38 39 40 40 40 40 40 40 40 40 41 42 42 41 41 41 43 44 44 44 44 44 44 44 45 46 47 47 47 46 45 45 44 44 44 43 42 41 41 42 42 42 41
33 35 36 37 37 38 39 39 40 40 41 41 41 41 41 42 42 42 43 42 42 42 43 44 44 44 45 45 45 46 46 47 47 48 49 49 48 47 46 46 46 46 44 43 43 43 44 44 44
33 35 36 37 38 38 39 39 39 39 40 40 41 42 42 42 43 43 43 43 43 43 44 45 46 45 46 47 47 47 47 47 48 49 49 50 50 49 48 49 48 48 48 47 47 46 45 45 46
34 35 36 37 38 38 39 40 38 38 39 39 40 41 42 42 43 44 44 45 45 44 45 46 46 46 46 48 49 49 49 49 50 50 50 50 51 51 50 51 51 51 50 49 49 49 48 47 48
35 35 36 37 38 39 38 40 38 38 37 38 39 40 41 42 42 43 44 45 46 46 45 46 47 47 47 48 49 49 50 51 51 52 53 53 52 52 52 53 53 53 54 52 51 50 49 49 49
35 35 36 37 37 38 37 38 38 36 36 36 38 38 39 40 41 42 43 44 45 46 46 46 47 47 47 47 48 49 51 53 53 54 54 53 54 54 53 53 55 55 54 54 54 53 52 52 51
34 34 35 37 37 38 36 38 37 35 35 35 36 36 37 38 39 40 41 42 44 44 45 45 46 47 47 48 48 49 49 52 53 54 54 55 54 55 55 55 55 56 56 55 55 55 54 54 52
33 33 33 36 37 37 36 37 36 35 35 35 35 35 36 37 38 39 40 41 42 43 44 45 46 47 48 48 49 49 50 51 52 53 54 55 55 55 56 56 56 56 57 56 55 55 54 54 54
33 32 33 34 36 37 36 36 34 34 34 35 34 34 34 35 37 38 40 40 41 42 43 44 45 47 48 49 49 50 51 51 52 54 54 53 54 55 55 55 56 57 57 58 56 55 54 55 56
33 32 32 32 34 35 35 35 34 33 34 35 35 34 35 35 37 38 39 41 41 41 42 43 45 46 48 49 49 50 50 52 52 53 54 53 54 55 56 56 56 56 57 58 57 57 57 56 56
33 32 32 32 33 35 36 35 34 34 34 35 36 36 36 36 38 39 39 39 40 41 42 43 44 45 46 48 49 49 50 51 52 53 54 54 55 55 56 56 56 56 56 57 57 57 57 57 56
33 32 32 33 35 36 37 36 34 34 35 36 37 38 39 39 39 39 39 39 40 41 42 43 44 45 46 47 48 49 50 51 52 53 54 55 55 54 55 56 56 56 56 56 56 57 57 57 57
Wind_Direction
254 251 248 247 248 250 251 251 250 251 251 251 250 250 250 250 248 249 247 246 246 245 245 244 243 243 241 239 239 240 240 241 241 242 242 241 240 240 238 237 238 237 238 239 238 236 233 234 237
255 253 250 249 249 251 252 253 253 255 255 253 251 250 249 249 249 249 249 248 246 245 245 244 243 243 243 243 242 242 242 242 242 243 244 243 242 242 241 240 240 240 240 241 241 239 235 236 238
256 256 254 253 253 253 254 255 255 255 255 254 252 250 249 248 249 249 249 249 248 246 245 244 243 243 244 245 244 243 242 242 242 243 244 244 244 244 244 243 242 243 244 243 243 241 238 238 239
258 258 257 256 255 255 256 255 254 255 256 255 253 251 250 249 249 249 250 250 249 249 247 245 244 244 245 245 245 245 243 243 243 242 243 244 244 244 245 245 244 244 244 244 243 241 240 240 240
260 260 259 259 257 256 256 254 253 254 255 256 254 253 253 251 250 250 249 250 250 250 250 248 246 245 245 244 246 246 245 244 243 243 244 245 245 244 245 246 246 246 245 243 242 241 241 240 240
260 261 260 260 259 258 257 256 255 254 254 255 255 254 254 253 252 252 251 250 250 250 250 250 248 246 245 245 245 245 245 245 245 244 245 245 246 247 247 247 246 247 247 246 244 243 242 242 242
261 261 260 260 260 259 260 260 259 257 255 255 255 254 254 253 253 253 252 252 251 251 250 249 249 247 247 246 246 246 245 244 245 245 245 245 245 247 247 247 246 247 247 246 245 245 244 244 243
261 261 261 261 261 261 261 261 261 260 257 256 255 255 254 253 252 253 253 252 252 252 251 250 249 248 247 247 246 246 245 245 245 245 244 244 245 245 246 246 247 247 247 247 247 246 246 245 245
262 262 263 264 264 263 262 261 260 260 259 257 256 256 256 255 254 253 253 253 253 252 251 252 250 249 248 247 246 246 245 245 244 244 245 245 245 245 245 245 247 248 247 247 247 247 248 248 247
265 265 266 266 265 264 263 262 261 260 260 259 258 257 256 256 255 255 254 254 253 253 252 251 251 249 248 247 246 245 245 244 244 244 244 245 245 245 244 244 245 246 247 247 247 248 248 248 247
268 268 268 266 265 264 263 262 261 260 260 260 259 259 258 257 256 255 255 255 254 253 252 251 251 249 248 247 245 245 245 244 244 244 245 245 245 244 244 243 244 245 246 247 247 248 248 248 247
271 270 268 266 265 263 262 262 261 261 261 261 261 260 259 258 257 256 256 255 255 254 253 251 250 249 248 246 245 244 244 245 244 244 245 245 244 244 244 244 244 245 247 247 246 247 249 248 248
272 271 269 267 265 264 263 262 262 261 261 260 260 260 260 260 259 258 257 256 255 255 254 253 251 250 248 247 246 244 243 243 244 244 245 246 246 245 244 245 245 246 247 247 247 247 248 248 247
273 272 270 267 266 265 264 263 262 261 261 261 261 260 259 259 259 258 258 257 255 254 254 253 252 250 249 248 247 246 246 245 244 244 244 245 245 245 245 245 245 246 247 247 246 246 247 247 247
274 273 271 269 268 266 265 264 264 263 262 261 261 260 259 259 258 257 257 256 254 253 253 252 251 251 250 248 246 245 246 246 245 244 244 245 245 244 245 245 245 246 247 246 247 247 247 247 247
275 272 271 271 270 268 267 266 266 264 263 262 262 261 260 258 258 257 256 255 254 252 251 251 250 250 250 247 246 245 244 244 244 244 244 245 245 244 244 245 245 246 246 247 247 247 247 247 247
277 274 272 271 271 270 268 267 267 266 265 264 263 262 260 258 257 257 257 256 254 252 251 250 250 250 250 248 245 245 244 244 243 244 245 245 244 245 244 245 245 245 246 247 247 247 248 248 247
280 278 275 273 272 271 269 268 268 267 266 265 264 263 260 259 257 257 257 256 255 253 251 249 249 250 249 248 246 245 245 244 244 244 245 245 244 245 245 245 245 245 246 247 247 247 247 248 248
281 278 277 276 274 272 270 269 269 267 265 264 264 263 261 259 258 257 257 256 255 254 252 250 249 249 249 247 245 245 245 245 245 245 245 245 244 245 246 246 246 245 246 248 249 248 248 248 248
283 279 277 276 277 275 273 271 269 267 266 265 264 263 261 259 258 256 256 256 255 254 253 251 250 249 248 247 246 245 246 245 246 245 245 245 246 247 246 246 247 247 247 247 248 248 249 249 249
286 284 281 279 279 278 276 273 270 268 267 266 265 263 261 260 258 256 255 255 255 255 254 252 251 249 248 247 246 247 247 247 246 245 245 245 246 247 246 246 247 248 248 247 248 249 249 249 250
289 287 285 282 280 279 278 276 272 270 268 267 266 263 261 260 258 257 256 255 254 254 254 252 251 250 248 248 247 247 248 248 247 246 245 245 246 247 248 247 247 248 249 249 250 250 251 251 251
292 290 287 284 281 280 279 278 275 272 270 268 267 265 263 262 259 258 257 256 254 254 253 252 251 249 249 248 248 248 247 247 247 247 246 246 247 248 248 247 247 248 249 250 251 251 251 251 250
294 291 287 284 282 281 280 279 277 274 272 270 269 267 265 264 261 260 258 256 255 253 253 252 251 249 248 248 248 248 248 248 247 247 246 247 247 248 248 248 248 249 250 250 251 252 251 251 251
295 292 289 286 283 282 281 279 278 276 274 272 270 269 267 265 263 261 259 257 255 253 253 252 251 250 248 248 248 249 249 249 249 248 248 248 248 249 250 248 248 248 250 250 250 251 251 251 251
298 294 291 289 288 286 283 282 281 279 276 275 272 270 268 266 264 261 260 258 256 254 253 252 251 250 248 248 248 248 249 250 250 249 248 249 249 249 250 250 249 250 249 250 251 250 250 250 251
299 296 293 289 288 287 285 284 282 282 281 278 276 273 271 269 266 264 262 261 259 256 254 253 252 251 250 249 249 249 250 251 251 249 249 249 250 250 250 251 250 250 250 250 251 251 249 248 249
299 297 295 291 289 289 287 285 286 287 285 283 281 277 273 271 270 267 265 263 260 259 256 254 253 253 252 251 251 251 251 252 251 250 250 250 251 251 250 251 251 251 251 251 250 250 249 249 249
298 295 293 291 289 288 288 286 286 287 286 285 283 279 275 272 271 269 266 264 261 259 257 256 255 254 253 253 252 252 253 253 251 251 250 250 251 252 251 251 251 252 252 251 250 250 250 250 249
296 294 292 289 289 288 287 287 287 286 286 285 284 280 276 274 273 271 267 264 262 260 258 257 256 255 255 255 254 253 253 253 252 252 251 251 252 253 253 251 251 252 252 252 251 250 250 251 250
Height
5819 5819 5820 5821 5822 5822 5823 5825 5825 5826 5827 5827 5828 5828 5830 5831 5832 5835 5834 5833 5834 5835 5836 5837 5839 5840 5841 5842 5843 5844 5845 5845 5846 5847 5847 5848 5849 5849 5850 5850 5850 5851 5852 5852 5853 5853 5853 5854 5854
5815 5815 5817 5817 5817 5817 5819 5820 5821 5822 5822 5822 5823 5823 5824 5825 5826 5827 5828 5829 5830 5831 5832 5833 5834 5836 5837 5838 5839 5840 5841 5842 5843 5844 5845 5845 5846 5847 5847 5847 5848 5849 5849 5850 5850 5851 5851 5852 5852
5810 5810 5812 5811 5811 5813 5814 5815 5816 5816 5816 5817 5818 5818 5819 5820 5821 5822 5823 5824 5825 5826 5827 5829 5830 5831 5833 5834 5835 5836 5837 5838 5839 5840 5841 5842 5842 5843 5844 5845 5845 5846 5847 5847 5848 5848 5849 5850 5850
5805 5806 5806 5806 5806 5808 5809 5810 5810 5810 5811 5811 5812 5813 5814 5815 5816 5817 5817 5818 5820 5821 5822 5824 5825 5826 5828 5829 5830 5832 5833 5834 5835 5836 5837 5838 5839 5840 5841 5841 5842 5843 5844 5844 5845 5846 5846 5847 5848
5799 5799 5800 5800 5801 5802 5802 5803 5803 5804 5804 5805 5806 5806 5808 5809 5809 5810 5811 5812 5814 5815 5816 5818 5819 5821 5822 5824 5825 5826 5828 5829 5830 5832 5833 5834 5835 5836 5837 5838 5838 5839 5840 5841 5841 5842 5843 5844 5845
5793 5793 5794 5794 5795 5795 5795 5796 5796 5797 5798 5798 5799 5799 5800 5802 5802 5803 5805 5806 5807 5808 5810 5811 5813 5814 5816 5817 5819 5820 5822 5823 5825 5826 5828 5829 5830 5831 5832 5833 5834 5835 5836 5837 5838 5838 5840 5841 5842
5787 5787 5787 5788 5788 5788 5788 5788 5789 5789 5790 5791 5791 5792 5793 5794 5795 5796 5797 5798 5800 5801 5803 5804 5806 5808 5809 5811 5812 5814 5815 5817 5819 5821 5822 5824 5825 5826 5827 5828 5829 5830 5831 5832 5833 5834 5835 5837 5838
5780 5780 5780 5780 5781 5781 5781 5781 5781 5782 5782 5783 5783 5784 5785 5786 5787 5788 5789 5790 5792 5793 5795 5797 5798 5800 5802 5803 5805 5807 5808 5810 5812 5814 5816 5818 5819 5820 5822 5823 5824 5825 5826 5827 5829 5830 5831 5832 5834
5773 5774 5773 5774 5774 5774 5773 5773 5774 5773 5774 5774 5774 5775 5776 5777 5778 5780 5781 5782 5784 5785 5787 5789 5790 5792 5794 5795 5797 5799 5801 5803 5805 5807 5809 5811 5813 5814 5816 5818 5819 5820 5821 5822 5824 5825 5826 5828 5829
5766 5766 5767 5766 5765 5765 5765 5765 5765 5765 5765 5766 5766 5766 5767 5768 5769 5771 5772 5773 5775 5776 5778 5779 5781 5783 5785 5787 5789 5791 5793 5795 5797 5799 5801 5804 5806 5808 5809 5811 5813 5814 5815 5816 5818 5819 5821 5822 5824
5758 5758 5758 5757 5756 5756 5756 5756 5756 5756 5757 5757 5758 5758 5759 5759 5760 5761 5763 5764 5766 5767 5768 5770 5771 5773 5775 5778 5780 5782 5784 5787 5789 5791 5793 5795 5798 5800 5802 5804 5806 5808 5809 5810 5812 5813 5815 5816 5818
5750 5750 5749 5748 5747 5747 5747 5747 5747 5748 5748 5748 5748 5749 5749 5750 5751 5752 5753 5755 5756 5758 5759 5760 5762 5763 5766 5768 5771 5773 5776 5778 5780 5783 5785 5788 5790 5793 5795 5797 5799 5801 5803 5804 5805 5807 5809 5810 5812
5742 5741 5740 5739 5739 5738 5738 5738 5738 5739 5738 5738 5739 5739 5740 5741 5742 5743 5743 5745 5746 5747 5749 5750 5752 5754 5756 5758 5761 5764 5766 5769 5771 5774 5777 5779 5782 5785 5787 5789 5792 5793 5795 5797 5799 5800 5802 5804 5806
5733 5732 5731 5730 5729 5728 5728 5728 5729 5729 5729 5729 5729 5729 5730 5731 5731 5732 5733 5735 5736 5737 5739 5740 5742 5744 5746 5748 5751 5754 5757 5760 5762 5765 5768 5771 5774 5776 5779 5781 5783 5786 5788 5790 5791 5793 5795 5797 5799
5724 5723 5721 5720 5719 5719 5719 5719 5719 5719 5719 5719 5719 5719 5719 5720 5721 5722 5723 5724 5726 5727 5728 5730 5732 5734 5736 5738 5741 5744 5747 5749 5753 5756 5759 5762 5765 5768 5770 5773 5775 5777 5779 5782 5784 5785 5788 5790 5792
5715 5713 5712 5712 5710 5709 5710 5710 5710 5708 5708 5708 5708 5709 5709 5709 5710 5711 5712 5713 5715 5716 5718 5720 5722 5724 5726 5729 5731 5734 5737 5739 5742 5746 5749 5752 5755 5758 5761 5764 5766 5768 5770 5773 5775 5777 5779 5782 5784
5705 5704 5703 5702 5700 5699 5699 5699 5699 5698 5698 5698 5698 5698 5698 5699 5699 5700 5701 5702 5703 5705 5707 5709 5712 5714 5716 5719 5721 5724 5727 5730 5733 5736 5739 5742 5745 5748 5751 5754 5756 5758 5761 5763 5766 5768 5770 5773 5775
5696 5694 5693 5691 5690 5689 5688 5689 5688 5687 5687 5687 5687 5687 5688 5688 5689 5690 5690 5691 5692 5694 5696 5698 5701 5703 5705 5708 5711 5714 5716 5719 5722 5725 5729 5732 5735 5738 5741 5744 5747 5749 5751 5754 5757 5759 5761 5764 5766
5686 5684 5683 5681 5679 5678 5677 5678 5677 5677 5677 5677 5677 5676 5677 5677 5678 5679 5679 5680 5682 5683 5684 5687 5689 5692 5694 5697 5700 5703 5706 5709 5712 5715 5718 5721 5725 5728 5731 5734 5737 5739 5742 5744 5747 5749 5752 5754 5757
5676 5674 5673 5671 5669 5667 5667 5667 5666 5666 5666 5665 5665 5665 5665 5665 5666 5668 5668 5669 5671 5672 5673 5675 5678 5680 5683 5686 5689 5692 5695 5698 5701 5704 5707 5710 5714 5717 5720 5723 5726 5728 5731 5734 5737 5739 5742 5744 5747
5667 5665 5662 5660 5658 5656 5655 5656 5656 5655 5654 5653 5653 5652 5653 5654 5655 5656 5657 5658 5659 5660 5662 5664 5666 5669 5671 5674 5677 5680 5683 5686 5690 5693 5696 5699 5702 5706 5709 5712 5715 5717 5720 5723 5726 5728 5731 5733 5736
5657 5655 5652 5649 5647 5646 5645 5644 5646 5644 5643 5642 5641 5641 5641 5641 5642 5643 5644 5646 5647 5648 5650 5651 5654 5657 5659 5662 5665 5669 5672 5675 5677 5681 5684 5688 5690 5693 5697 5700 5703 5706 5708 5711 5714 5716 5719 5722 5724
5647 5644 5642 5639 5636 5635 5634 5632 5634 5633 5632 5631 5630 5629 5629 5629 5630 5630 5631 5633 5635 5636 5638 5639 5641 5644 5647 5650 5653 5656 5659 5662 5665 5668 5672 5675 5678 5681 5684 5687 5691 5693 5696 5698 5701 5703 5707 5710 5712
5637 5635 5632 5629 5626 5625 5625 5622 5622 5622 5621 5620 5619 5618 5618 5617 5618 5618 5619 5620 5622 5623 5625 5627 5629 5631 5634 5637 5640 5643 5646 5649 5652 5655 5658 5662 5665 5668 5671 5674 5677 5680 5682 5685 5688 5690 5693 5696 5699
5629 5626 5622 5618 5616 5615 5615 5611 5612 5611 5610 5609 5608 5607 5606 5606 5606 5606 5607 5608 5609 5611 5613 5614 5617 5619 5621 5624 5628 5630 5633 5636 5639 5642 5645 5648 5652 5655 5657 5660 5663 5666 5669 5671 5674 5676 5679 5682 5685
5620 5617 5614 5610 5607 5605 5603 5601 5602 5601 5599 5598 5597 5597 5596 5595 5595 5595 5595 5596 5597 5599 5600 5602 5604 5606 5609 5611 5614 5617 5620 5622 5625 5628 5631 5634 5638 5641 5644 5646 5649 5651 5654 5657 5659 5662 5665 5668 5672
5611 5608 5605 5601 5597 5595 5593 5592 5592 5591 5589 5587 5586 5585 5585 5584 5584 5584 5584 5585 5586 5587 5588 5590 5592 5594 5596 5598 5601 5603 5606 5608 5611 5614 5617 5620 5623 5626 5629 5632 5634 5637 5639 5642 5645 5647 5650 5654 5658
5603 5599 5596 5592 5588 5584 5583 5583 5583 5581 5579 5578 5576 5575 5574 5573 5573 5572 5573 5573 5574 5575 5576 5577 5579 5581 5583 5585 5587 5589 5592 5594 5596 5599 5602 5605 5608 5611 5614 5617 5619 5622 5625 5627 5630 5633 5636 5639 5643
5594 5591 5587 5583 5580 5577 5573 5576 5574 5572 5569 5567 5566 5564 5562 5562 5561 5561 5561 5561 5562 5562 5564 5565 5566 5568 5570 5571 5573 5575 5577 5580 5582 5585 5588 5591 5594 5596 5599 5602 5605 5607 5610 5612 5615 5619 5622 5625 5629
5585 5582 5579 5576 5572 5568 5564 5567 5565 5562 5559 5557 5555 5552 5551 5550 5550 5549 5549 5549 5550 5550 5551 5552 5553 5555 5556 5558 5560 5562 5563 5565 5568 5570 5573 5576 5579 5582 5585 5588 5591 5593 5595 5598 5601 5604 5608 5611 5615